クラーク彗星

71P/Clark (2017)

English version
Home page
Updated on February 7, 2017

---------------------------------------------------------------------

・ プロフィール

・ 写真集

・ 軌道要素

Epoch 2017 June 16.0 TT = JDT 2457920.5
T 2017 June 30.20303 TT                                 MPCW
q   1.5862754            (2000.0)            P               Q
n   0.17738594     Peri.  208.91541     -0.03426129     +0.98937020
a   3.1370630      Node    59.44480     -0.88248416     +0.03642363
e   0.4943438      Incl.    9.44576     -0.46909260     -0.14078325
P   5.56
From 915 observations 2005 Dec. 22-2017 Jan. 4, mean residual 0".9.
     Nongravitational parameters A1 = +2.30, A2 = +0.0750.

・ 星図

・ 光度変化

        m1 = 7.2 + 5 logΔ + 20.0 log r(t - 30)

---------------------------------------------------------------------

軌道要素はM.P.E.C. 2017-A13に掲載されたものです。
星図はステラナビゲータ Ver.8 (アストロアーツ) で作成したものです。
光度グラフはComet for Windowsで作成したものです。

---------------------------------------------------------------------

Copyright(C) Seiichi Yoshida (comet@aerith.net). All rights reserved.